Über Flock 4g-4
Group: 3 satellites
Beschreibung wird geladen...
Live-Position
3D-Globus wird geladen...
Nächste Überflüge
Höhenverlauf
Altitude vs Time
uPlot chart will show altitude changes over time
Zweizeiliger Elementsatz
1 62659U 25009BC 25341.20660934 .00014422 00000-0 59023-3 0 9994
2 62659 97.4138 59.1425 0001364 292.7588 67.3506 15.24425601107211
Epoch: 7. Dez. 2025 •
Age: 21 hours
Aktueller Status
Höhe 510.4 km
Geschwindigkeit 7.61 km/s
Subsatellitenpunkt -47.30°S,
118.36°E
Startdatum 14. Jan. 2025
Alter 0.8 years
Typ earth observation
Technische Details
Klassifizierung Payload
Masse 5.70 kg
Trockenmasse 5.70 kg
Gesamtmasse 5.70 kg
Länge 0.30 m
Durchmesser 0.10 m
Spannweite 0.30 m
Form Box+2 pan
Hersteller PLAN
Bus-Typ Cubesat 3U
Phasenstatus In Orbit
Besitzer/Staat PLAN/US
Große Konstellationen
Loading constellations...